[[{"header":{"parameterUnit":"m.s-1","parameterCategory":1,"la1":30.2991,"la2":30.254,"lo1":-89.0895,"lo2":-89.0444,"dy":0.0017,"dx":0.0017,"nx":28,"ny":28,"refTime":"2025-05-16T09:00:00:Z","depth":0,"parameterNumber":2,"parameterNumberName":"U-component_of_WINDS"},"data":[0,0,0,0,0,0,0,0,0,0,0,0,0,0,0,0,0,0,0,0,0,0,0,0,0,0,0,0,0,0,0,0,0,0,0,0,0,0,0,0,0,0,0,0,0,0,0,0,0,0,0,0,0,0,0,0,0,0,0.8565,0.8565,0,0.8557,0.8557,0.8557,0.8513,0.8511,0.851,0.8509,0.8503,0.8504,0.8505,0,0,0,0,0,0,0,0,0,0,0,0,0,0.8542,0.8543,0.8565,0.8565,0.8565,0.8557,0.8557,0.8557,0.8513,0.8511,0.851,0.8509,0.8503,0.8504,0.8505,0,0,0,0,0,0,0,0,0,0,0,0,0,0.8545,0.8543,0.8565,0.8542,0.854,0.8557,0.8557,0.8557,0.8513,0.8511,0.851,0.8508,0.8503,0.8504,0.8505,0.8546,0,0,0.8509,0.851,0,0,0,0,0,0,0,0,0.8545,0.8546,0.8545,0.8543,0.8541,0.8534,0.8547,0.8553,0.8513,0.8523,0.8509,0.8507,0.8515,0.8515,0.8517,0.8545,0.8545,0.8509,0.851,0.8511,0.8511,0,0,0,0,0,0,0,0.8545,0.8546,0.8562,0.8545,0.8543,0.8532,0.8531,0.8548,0.8528,0.8522,0.8519,0.8519,0.8514,0.8516,0.8517,0.8545,0.8509,0.851,0.8511,0.8512,0.8604,0.8606,0,0,0,0,0,0,0.8548,0.8546,0.8562,0.8562,0.8539,0.8534,0.8532,0.8538,0.8528,0.8525,0.852,0.8516,0.8515,0.8516,0.8517,0.8562,0.8511,0.8512,0.8513,0.8603,0.8605,0.8607,0,0,0,0,0,0,0.8547,0.8549,0.8563,0.8553,0.8554,0.8536,0.8543,0.8539,0.8541,0.8526,0.8523,0.8526,0.8514,0.8515,0.8538,0.8561,0.8512,0.8514,0.8601,0.8603,0.8606,0.8654,0,0,0,0,0,0,0.8547,0.855,0.8565,0.8554,0.8555,0.8584,0.8544,0.854,0.8543,0.8539,0.8531,0.8528,0.8513,0.8537,0.854,0.8562,0.8515,0.8598,0.8602,0.8605,0.865,0.8658,0.8664,0,0,0,0,0,0.8546,0.8579,0.8566,0.8568,0.8573,0.8586,0.8586,0.8567,0.8546,0.856,0.8551,0.8529,0.8558,0.8539,0.8542,0.8566,0.8597,0.8601,0.8605,0.8647,0.8656,0.8664,0,0,0,0,0,0,0.8594,0.8577,0.8562,0.8593,0.8591,0.8578,0.8596,0.8577,0.8582,0.8578,0.8554,0.8552,0.8579,0.8575,0.8554,0.8604,0.8574,0.8578,0.8605,0.8614,0.8621,0.8621,0.8516,0,0,0,0,0,0.8608,0.8619,0.8604,0.8633,0.8633,0.8615,0.862,0.8605,0.8602,0.8601,0.8593,0.8592,0.8601,0.8607,0.8615,0.865,0.8647,0.8667,0.8674,0.868,0.8684,0.8701,0.871,0.8619,0.8619,0.8619,0,0,0.8637,0.863,0.8638,0.8642,0.8639,0.8651,0.8614,0.863,0.8638,0.8604,0.8625,0.8619,0.8616,0.8645,0.8658,0.8642,0.8709,0.8685,0.869,0.869,0.8706,0.8715,0.8722,0.8622,0.8621,0.8621,0,0,0.8697,0.8692,0.8715,0.8712,0.8707,0.8695,0.8701,0.8691,0.8685,0.8706,0.868,0.8691,0.8707,0.8705,0.8707,0.8765,0.8744,0.8768,0.8805,0.8822,0.8829,0.8835,0.8855,0.8862,0.8772,0.8772,0.8772,0,0.8734,0.8751,0.8729,0.8745,0.8747,0.8716,0.8738,0.8737,0.8735,0.8738,0.8721,0.8739,0.8735,0.8763,0.8777,0.878,0.8785,0.8768,0.8829,0.8835,0.8841,0.8859,0.8867,0.8775,0.8775,0.8774,0.8774,0,0.8796,0.8808,0.8827,0.8825,0.8829,0.8849,0.883,0.8837,0.8822,0.8812,0.8833,0.8827,0.8832,0.8837,0.8823,0.8863,0.8854,0.8834,0.8803,0.8853,0.8869,0.8877,0.8779,0.8778,0.8777,0.8777,0,0,0.8885,0.887,0.8877,0.8875,0.8868,0.8877,0.8895,0.8899,0.8905,0.8906,0.892,0.8934,0.8914,0.8916,0.8901,0.8916,0.8961,0.8894,0.8894,0.8906,0.9004,0.9018,0.9027,0.8948,0.895,0.8951,0.9004,0,0.894,0.8969,0.895,0.8982,0.8993,0.8963,0.8978,0.8975,0.8966,0.8974,0.8964,0.8974,0.8949,0.8949,0.8963,0.8953,0.8981,0.8949,0.8961,0.8962,0.8961,0.9036,0.9052,0.9102,0.901,0.9012,0.9012,0,0.9009,0.9011,0.9044,0.9033,0.9037,0.9051,0.9053,0.9061,0.9057,0.9049,0.9051,0.9032,0.9049,0.902,0.9042,0.9021,0.9025,0.9021,0.9022,0.9022,0.8989,0.9037,0.9118,0.9125,0.9023,0.9022,0.9021,0,0.9069,0.908,0.9101,0.91,0.9089,0.9099,0.9095,0.9089,0.9093,0.9095,0.9097,0.9101,0.9104,0.9108,0.909,0.9071,0.9115,0.9084,0.9109,0.9109,0.9119,0.9118,0.9201,0.9123,0.9123,0.9123,0.9123,0,0.9133,0.9154,0.9127,0.914,0.9163,0.914,0.9163,0.9156,0.9151,0.9162,0.9137,0.9148,0.9125,0.9134,0.9121,0.9141,0.9143,0.9137,0.9133,0.9138,0.9139,0.914,0.9135,0.9125,0.9124,0.9124,0.9124,0,0.9203,0.9186,0.9207,0.9194,0.9191,0.9208,0.9197,0.9208,0.9197,0.9211,0.9213,0.9197,0.9205,0.9189,0.9196,0.9187,0.9215,0.9206,0.9216,0.9213,0.9238,0.9235,0.9323,0.9333,0.925,0.9251,0.9251,0,0.9244,0.9259,0.9247,0.9252,0.9249,0.9258,0.9261,0.924,0.9244,0.9241,0.9253,0.9259,0.9263,0.9278,0.9267,0.9272,0.9262,0.9293,0.9263,0.9268,0.9262,0.926,0.9261,0.9299,0.93,0.93,0.9301,0,0.9318,0.9309,0.9314,0.9316,0.932,0.9321,0.932,0.9326,0.9304,0.931,0.9318,0.9321,0.9328,0.9334,0.9337,0.9332,0.9313,0.9311,0.9316,0.9322,0.9326,0.9323,0.9231,0.9309,0.9308,0.9307,0.9307,0.9307,0.9374,0.9385,0.9379,0.9385,0.9382,0.9382,0.9391,0.9381,0.9388,0.9391,0.9378,0.9389,0.9385,0.9385,0.9383,0.9392,0.9378,0.9387,0.9389,0.9391,0.9394,0.9326,0.9392,0.9392,0.9392,0.9392,0.9391,0,0.9445,0.9439,0.9446,0.9445,0.945,0.9431,0.9429,0.9434,0.9444,0.9441,0.9445,0.9454,0.9461,0.945,0.9454,0.9463,0.9454,0.9465,0.9463,0.9462,0.9407,0.9401,0.9472,0.9472,0.9472,0.9472,0.9472,0.9472,0.9483,0.9501,0.9491,0.9508,0.9502,0.9512,0.9512,0.9512,0.9509,0.952,0.9525,0.9518,0.9512,0.9515,0.952,0.9517,0.9519,0.9533,0.9527,0.9474,0.9467,0.9459,0.9453,0.9534,0.9534,0.9581,0.9582,0.9582]},{"header":{"parameterUnit":"m.s-1","parameterCategory":1,"la1":30.2991,"la2":30.254,"lo1":-89.0895,"lo2":-89.0444,"dy":0.0017,"dx":0.0017,"nx":28,"ny":28,"refTime":"2025-05-16T09:00:00:Z","depth":0,"parameterNumber":3,"parameterNumberName":"V-component_of_WINDS"},"data":[0,0,0,0,0,0,0,0,0,0,0,0,0,0,0,0,0,0,0,0,0,0,0,0,0,0,0,0,0,0,0,0,0,0,0,0,0,0,0,0,0,0,0,0,0,0,0,0,0,0,0,0,0,0,0,0,0,0,3.9393,3.9393,0,3.9465,3.9466,3.9467,3.9432,3.943,3.9428,3.9426,3.9497,3.9501,3.9504,0,0,0,0,0,0,0,0,0,0,0,0,0,3.9219,3.9223,3.9392,3.9393,3.9394,3.9465,3.9466,3.9467,3.9432,3.943,3.9427,3.9425,3.9496,3.95,3.9504,0,0,0,0,0,0,0,0,0,0,0,0,0,3.9293,3.9224,3.9392,3.9385,3.9385,3.9465,3.9466,3.9467,3.9432,3.943,3.9427,3.9424,3.9494,3.95,3.9505,3.9594,0,0,3.9522,3.9524,0,0,0,0,0,0,0,0,3.9289,3.93,3.9385,3.9386,3.9386,3.9436,3.9431,3.951,3.9433,3.9414,3.9426,3.9423,3.9479,3.9485,3.9505,3.9598,3.9601,3.9522,3.9525,3.9528,3.9529,0,0,0,0,0,0,0,3.9284,3.9296,3.9421,3.9387,3.9387,3.9377,3.9385,3.9446,3.9461,3.9416,3.9413,3.9423,3.9478,3.95,3.9506,3.9602,3.9522,3.9527,3.953,3.9532,3.977,3.9773,0,0,0,0,0,0,3.928,3.9292,3.9419,3.9423,3.933,3.9383,3.9391,3.9423,3.9461,3.9464,3.9425,3.9421,3.9492,3.95,3.9509,3.9616,3.9528,3.9533,3.9536,3.9767,3.9771,3.9774,0,0,0,0,0,0,3.9276,3.9291,3.9416,3.9357,3.9372,3.9389,3.9425,3.9426,3.9447,3.9468,3.947,3.9444,3.949,3.9501,3.9573,3.9618,3.9535,3.954,3.9764,3.9769,3.9773,3.9831,0,0,0,0,0,0,3.9271,3.929,3.9326,3.9358,3.9376,3.9481,3.9428,3.9429,3.9457,3.9452,3.9486,3.9489,3.9489,3.9566,3.9579,3.9624,3.9544,3.976,3.9766,3.9771,3.9825,3.9837,3.9847,0,0,0,0,0,3.9265,3.9338,3.9328,3.9343,3.942,3.9483,3.9493,3.9492,3.9461,3.9496,3.9509,3.9488,3.9611,3.9573,3.9588,3.9635,3.9757,3.9764,3.9771,3.982,3.9835,3.9847,0,0,0,0,0,0,3.9309,3.9343,3.9331,3.9417,3.9448,3.9477,3.9522,3.9508,3.9547,3.9541,3.9537,3.9545,3.962,3.9634,3.9592,3.9723,3.9679,3.9689,3.9711,3.9725,3.9736,3.9731,3.9549,0,0,0,0,0,3.9329,3.9379,3.9405,3.9478,3.9494,3.9505,3.9533,3.953,3.9561,3.9573,3.9591,3.9621,3.9666,3.9696,3.9739,3.9827,3.9833,3.9866,3.9877,3.9886,3.9895,3.9942,3.9957,3.9797,3.9797,3.9797,0,0,3.9371,3.9395,3.9427,3.9488,3.9511,3.9562,3.9517,3.9572,3.9609,3.9581,3.9651,3.9665,3.9698,3.9779,3.9815,3.9793,3.9941,3.9895,3.9902,3.9906,3.9951,3.9966,3.998,3.9802,3.9801,3.98,0,0,3.9472,3.9496,3.956,3.9584,3.9621,3.9627,3.9642,3.9674,3.9683,3.9753,3.9733,3.9776,3.9854,3.9879,3.9901,4.0011,3.9993,4.0024,4.0082,4.0128,4.0141,4.0152,4.0191,4.0206,4.0033,4.0033,4.0034,0,3.9519,3.9596,3.9594,3.9652,3.9679,3.9656,3.972,3.9743,3.9791,3.981,3.9785,3.9882,3.9903,3.9989,4.0015,4.0034,4.0051,4.0021,4.0139,4.0151,4.0161,4.0199,4.0213,4.0037,4.0037,4.0036,4.0036,0,3.9652,3.9705,3.9752,3.98,3.9832,3.9893,3.9898,3.9931,3.9924,3.9933,4.0004,4.0028,4.0075,4.0095,4.0088,4.0179,4.0165,4.014,4.0095,4.018,4.0215,4.023,4.0042,4.0041,4.004,4.0039,0,0,3.9785,3.9831,3.9848,3.9869,3.9907,3.9948,4.0006,4.0053,4.0081,4.0114,4.0163,4.0229,4.0206,4.0232,4.0227,4.0268,4.0353,4.0237,4.0238,4.0259,4.0455,4.0474,4.0491,4.0341,4.0344,4.0346,4.0452,0,3.9889,3.9994,3.9993,4.0089,4.0138,4.0117,4.0167,4.0195,4.0205,4.0246,4.0256,4.0303,4.0269,4.0284,4.0323,4.0335,4.0393,4.0327,4.0386,4.0388,4.038,4.051,4.0531,4.063,4.0466,4.0468,4.047,0,4.0026,4.0065,4.0166,4.0197,4.0217,4.0263,4.0306,4.0346,4.0377,4.0381,4.0409,4.0399,4.0457,4.041,4.0489,4.0445,4.0468,4.0477,4.0481,4.0487,4.0435,4.052,4.0661,4.0677,4.0492,4.049,4.0488,0,4.0114,4.0191,4.0262,4.0281,4.0318,4.0351,4.0367,4.0395,4.0423,4.046,4.0478,4.052,4.0544,4.0576,4.0577,4.0542,4.0657,4.061,4.0662,4.0662,4.0688,4.0687,4.0836,4.0702,4.0701,4.0701,4.0701,0,4.0231,4.0294,4.0302,4.0345,4.0415,4.0412,4.048,4.0494,4.0519,4.0563,4.0546,4.0588,4.0586,4.0629,4.0629,4.0695,4.0705,4.0709,4.0709,4.0712,4.0711,4.0728,4.0722,4.0705,4.0704,4.0703,4.0703,0,4.0341,4.0349,4.0425,4.0454,4.0462,4.0512,4.0536,4.0577,4.0584,4.0641,4.0654,4.0666,4.0714,4.0718,4.0774,4.0774,4.0854,4.0846,4.0845,4.0844,4.0895,4.0891,4.1062,4.1084,4.0934,4.0935,4.0937,0,4.0417,4.0465,4.0499,4.0528,4.0547,4.0595,4.0624,4.0622,4.0653,4.0691,4.0727,4.0774,4.0813,4.0891,4.0904,4.0946,4.0939,4.0996,4.0945,4.0946,4.0941,4.0938,4.0943,4.1006,4.1008,4.1009,4.101,0,4.0549,4.0551,4.0594,4.0638,4.0673,4.0708,4.074,4.0765,4.0767,4.0802,4.0852,4.0882,4.0939,4.0986,4.1028,4.1043,4.1028,4.1026,4.104,4.1044,4.1042,4.1045,4.0873,4.1022,4.1021,4.102,4.1019,4.1019,4.0645,4.0687,4.0718,4.0766,4.079,4.082,4.086,4.0873,4.0915,4.0963,4.0959,4.1015,4.1043,4.1097,4.1116,4.1159,4.1139,4.116,4.1165,4.1171,4.1177,4.1034,4.1166,4.1166,4.1165,4.1165,4.1165,0,4.0777,4.0796,4.0841,4.0887,4.0924,4.0907,4.0941,4.0973,4.1023,4.1051,4.1089,4.1147,4.1192,4.1208,4.1252,4.1283,4.1277,4.1295,4.1293,4.1297,4.1191,4.1175,4.1299,4.1299,4.1299,4.1299,4.1299,4.1299,4.0851,4.0921,4.0926,4.1007,4.1024,4.108,4.1101,4.1129,4.1151,4.1217,4.1255,4.1266,4.1289,4.1334,4.1374,4.1378,4.1395,4.1416,4.1417,4.1318,4.1304,4.1291,4.1276,4.142,4.142,4.1519,4.152,4.1521]}]]